Dewpoint
54 54 54 54 54 54 54 54 54 55 55 55 56 56 56 57 57 51 30 33 38 61 52 19 20 21 25 25 26 20 17 15 15 13 33 52 50 51 54 52 54 53 56 55 62
54 54 54 54 53 53 54 54 54 54 55 55 55 55 56 57 51 43 47 56 61 59 18 13 20 19 20 22 24 21 16 15 16 19 35 50 49 49 51 50 52 53 56 61 63
53 53 53 53 53 53 53 53 54 54 54 54 55 55 57 56 30 14 58 61 61 58 26 22 20 15 32 18 20 18 16 16 16 22 28 47 50 51 50 48 52 50 53 59 63
53 52 52 52 52 52 53 53 54 54 54 54 55 56 58 50 4 29 67 67 63 39 22 19 16 13 18 22 18 16 17 16 15 18 36 46 50 51 50 49 52 54 56 59 61
52 52 52 52 52 52 53 53 53 53 53 54 54 56 52 27 22 24 65 65 52 33 22 18 15 17 24 19 18 14 14 15 14 15 31 46 48 48 49 51 49 55 55 60 61
51 51 51 51 52 52 53 53 53 53 53 54 55 57 39 18 13 43 52 42 34 26 24 18 15 20 22 22 16 17 15 16 19 17 17 40 46 48 47 50 49 55 53 55 59
51 51 50 51 51 53 53 53 53 53 53 54 55 53 40 20 31 33 31 28 35 26 23 22 23 24 24 23 23 19 19 18 18 14 42 46 44 46 47 47 48 52 54 52 54
52 52 51 51 52 53 53 52 53 54 54 54 57 51 21 26 36 36 30 26 28 29 23 22 21 19 23 23 20 18 17 21 16 19 39 30 23 29 46 47 47 51 52 52 56
51 51 51 51 52 52 52 52 54 56 56 58 50 41 21 37 31 31 27 16 26 24 23 21 22 21 23 20 16 18 19 17 16 18 40 33 17 14 28 46 47 49 51 51 54
50 51 51 51 51 51 51 52 52 56 55 54 49 32 22 22 31 31 31 27 27 25 24 22 24 23 22 19 11 15 18 22 17 18 19 19 23 17 19 45 45 48 49 50 53
49 50 50 50 50 50 49 33 30 27 31 28 27 18 23 27 36 34 29 26 28 25 21 24 21 19 20 21 20 21 20 20 21 22 21 18 16 16 30 44 46 48 49 49 56
49 49 50 50 49 51 42 32 32 32 29 28 27 25 26 31 28 31 29 24 26 24 22 22 20 21 22 23 23 23 22 20 20 23 18 16 15 34 46 45 46 47 48 54 58
50 50 50 49 49 40 38 34 35 32 25 22 24 23 23 28 27 29 29 24 24 23 21 23 22 23 22 22 23 21 21 20 18 20 20 16 16 31 50 53 51 55 55 56 58
50 50 50 49 36 39 30 36 33 34 20 19 29 25 26 29 27 32 31 22 24 21 21 20 22 21 22 20 21 19 22 22 21 20 16 18 13 18 43 51 53 56 56 56 58
50 49 49 47 38 30 28 34 35 34 8 22 27 25 25 26 24 30 32 21 18 22 24 22 21 21 20 19 22 18 23 22 24 20 19 18 15 16 45 47 47 53 56 56 57
49 48 48 42 38 35 35 36 30 5 -2 19 21 20 23 25 26 24 26 24 22 19 26 23 26 22 20 21 22 25 23 21 23 21 16 16 16 16 43 46 47 53 55 57 57
48 47 46 42 26 36 36 27 11 6 11 23 22 19 18 20 22 25 21 20 19 16 17 17 17 21 23 22 24 21 20 18 18 16 16 21 18 19 25 34 42 48 54 58 58
48 47 43 43 42 37 30 17 5 10 18 28 23 21 20 20 21 23 17 16 19 17 16 15 13 15 20 18 18 20 20 20 13 16 15 24 20 22 44 52 52 53 56 58 57
46 38 38 37 41 36 25 14 13 15 25 26 22 19 19 22 20 22 23 20 16 19 16 18 16 22 22 22 21 22 19 21 20 23 20 19 22 38 51 54 54 55 57 57 58
38 37 36 39 40 32 22 24 18 26 28 29 21 24 20 21 18 18 20 27 27 21 20 19 17 20 22 20 21 21 23 19 21 17 16 17 23 25 38 49 54 54 55 56 57
36 25 26 40 38 29 22 22 25 27 31 30 27 25 24 22 22 18 19 26 27 21 19 20 19 17 18 18 16 16 19 23 22 24 18 17 20 29 36 41 53 54 55 55 56
33 11 36 38 31 32 27 28 33 31 35 32 31 27 26 25 26 22 22 25 28 26 22 25 21 18 15 17 19 17 17 22 22 19 26 24 23 27 32 42 53 54 55 54 55
31 32 36 36 29 31 32 32 32 32 32 32 31 30 31 28 25 27 26 33 36 29 20 22 21 20 21 20 21 22 21 22 25 26 25 23 24 35 45 48 52 54 54 54 53
32 17 29 34 34 31 30 30 30 33 32 31 29 32 32 31 29 27 29 35 38 37 49 38 24 21 23 21 25 26 27 24 23 23 22 28 24 26 44 47 50 52 54 53 53
33 27 33 27 31 31 31 32 29 29 31 31 33 33 32 30 30 32 38 37 35 40 34 31 26 29 28 29 28 29 29 28 23 23 22 22 25 25 35 46 48 51 52 52 52
33 33 34 33 33 31 33 30 30 30 26 24 31 33 33 29 32 34 38 37 34 36 32 33 27 26 24 23 24 28 29 29 26 25 25 27 26 29 33 47 47 48 50 51 52
36 35 34 31 31 28 28 29 31 27 31 34 35 33 33 34 39 38 39 38 34 32 32 33 30 25 20 27 24 16 25 29 27 26 24 23 26 44 47 46 47 48 50 50 52
Lifted_Index
15 15 16 16 16 16 16 16 15 15 15 14 14 14 13 13 12 11 10 10 10 11 10 10 9 8 7 6 5 3 1 0 0 1 0 -0 -1 -1 -0 -0 -1 -2 -3 -3 -3
16 16 16 16 16 16 16 16 16 15 15 15 14 14 13 13 12 11 10 10 10 10 10 9 8 8 7 6 5 3 1 1 1 1 1 0 -1 -1 -0 -0 -0 -1 -2 -3 -3
16 16 16 16 16 16 16 16 16 15 15 15 15 14 13 12 10 9 9 9 10 10 10 9 8 7 6 5 5 3 2 1 1 2 1 1 -0 -1 -1 -0 -1 -1 -2 -3 -3
16 16 16 16 16 16 16 16 16 16 15 15 15 14 13 11 9 9 7 7 8 10 10 8 7 6 6 5 5 4 2 2 2 2 2 1 -0 -1 -1 -1 -1 -1 -2 -3 -4
16 16 16 16 16 16 16 16 16 16 16 15 15 14 12 10 10 9 7 7 8 9 9 8 7 6 6 6 6 5 3 3 2 2 1 1 -0 -1 -1 -1 -1 -2 -2 -3 -4
16 16 16 16 16 16 16 16 16 16 15 15 14 13 11 10 10 10 9 8 9 9 9 8 8 7 7 6 6 5 4 3 2 2 1 1 -0 -0 -0 -1 -1 -2 -3 -3 -4
16 16 15 15 15 15 15 15 15 15 15 14 14 12 11 11 11 11 10 9 9 9 10 10 9 8 7 7 6 5 4 3 2 1 1 0 -0 -0 -0 -0 -1 -2 -2 -3 -3
15 15 15 15 15 15 14 13 12 12 13 13 13 11 10 11 12 11 10 9 8 9 10 11 10 9 7 7 6 5 4 2 2 1 1 0 0 0 0 0 -0 -1 -2 -2 -2
14 14 14 14 14 14 13 12 10 10 11 11 11 11 10 11 11 11 10 9 8 9 10 11 10 8 7 5 4 4 3 2 2 2 1 1 0 0 1 1 0 -0 -1 -2 -2
13 13 13 13 13 13 12 11 10 10 10 10 10 9 10 10 10 10 10 9 8 8 9 9 8 7 6 4 3 3 3 3 2 2 2 1 1 1 1 1 1 0 -1 -1 -2
14 13 13 13 13 12 12 11 11 10 9 9 8 8 9 10 10 10 9 9 8 8 8 8 7 5 5 5 4 4 3 3 3 3 2 1 1 1 0 0 0 0 -1 -1 -1
14 14 13 13 12 12 12 11 12 10 8 8 8 8 8 9 9 9 9 9 8 7 7 7 6 5 6 6 5 4 3 2 2 3 3 2 1 1 -0 -0 -0 -0 -1 -1 -1
15 14 13 13 12 12 12 12 12 11 8 6 6 7 7 8 8 8 8 8 8 7 7 7 6 6 6 6 5 4 3 2 2 3 2 2 1 0 -0 -1 -1 -1 -1 -1 -1
15 14 14 13 12 12 12 12 12 10 7 5 6 6 7 7 7 8 8 8 7 7 7 7 6 6 6 6 5 4 3 3 3 3 2 2 1 1 0 -1 -1 -1 -1 -1 -1
15 15 15 14 12 12 12 12 12 9 5 5 6 6 6 6 6 7 8 8 7 7 7 7 6 6 6 6 5 5 4 4 4 3 2 2 2 1 1 0 -1 -1 -2 -2 -2
15 15 15 15 13 12 12 12 10 7 4 5 6 6 5 5 6 6 7 7 7 7 7 6 6 6 6 6 6 5 5 4 4 3 2 2 2 2 2 1 0 -1 -2 -2 -2
15 15 16 15 14 13 12 10 7 5 5 5 5 5 5 5 5 5 6 6 6 5 5 5 5 6 6 6 6 5 4 3 2 2 2 2 2 2 2 2 1 -0 -1 -2 -2
15 15 16 16 15 14 12 9 6 5 5 5 5 5 4 4 4 5 5 5 5 5 5 4 4 5 5 5 5 4 4 3 2 2 2 2 2 3 2 1 0 0 -1 -2 -2
15 15 15 14 14 14 11 8 6 6 6 6 5 5 4 4 4 4 4 5 5 5 5 4 4 4 5 5 5 4 4 3 2 2 2 2 3 3 2 1 0 -0 -1 -2 -2
14 14 14 13 13 12 10 7 7 8 8 6 5 5 5 4 4 3 4 4 5 5 5 5 4 4 5 5 5 4 4 3 3 2 2 2 3 3 2 1 0 -1 -1 -2 -2
13 13 12 12 12 11 9 7 8 9 9 7 6 6 5 5 4 4 4 4 4 4 5 5 4 3 4 5 5 4 4 3 3 2 2 2 3 3 3 2 0 -1 -2 -2 -2
12 11 11 11 10 9 8 8 9 9 9 8 8 7 6 5 5 4 4 5 5 4 4 4 3 2 3 4 4 4 4 4 3 3 3 3 3 3 3 2 0 -1 -2 -2 -3
12 11 11 10 9 9 9 9 9 9 9 9 8 8 7 6 6 5 5 6 6 5 4 4 3 2 2 2 3 3 4 4 4 3 3 3 3 3 2 1 -0 -2 -3 -3 -3
12 11 11 10 9 9 9 9 9 9 8 8 8 8 7 6 6 6 6 6 6 5 5 4 3 3 2 2 2 3 3 3 3 3 3 3 3 3 2 1 -1 -2 -3 -4 -4
12 12 11 10 9 9 9 9 9 8 8 8 8 8 7 7 6 6 7 6 6 6 5 5 4 3 3 3 3 3 2 2 2 3 3 3 3 3 2 1 -0 -1 -3 -4 -4
13 13 12 11 10 9 9 9 8 8 8 8 8 8 7 7 7 7 7 7 6 6 5 5 4 4 3 3 3 3 3 2 2 2 3 3 3 3 2 1 0 -1 -2 -3 -3
14 13 13 12 11 9 9 8 8 8 8 8 8 8 8 8 7 7 8 7 7 6 6 5 5 4 3 3 3 3 3 2 2 2 2 3 3 3 2 2 1 -0 -1 -2 -2